Tallahassee, FL

11:08 PM EDT on May 25, 2017 (GMT -0400)
Tallahassee Regional

Weather History for KTLH - September, 2013

Change the Weather History Date:

Tuesday, September 10, 2013

  Actual Average Record
Temperature  
Mean Temperature 82 °F 80 °F  
Max Temperature 93 °F 90 °F 98 °F (1954)
Min Temperature 70 °F 70 °F 54 °F (1969)
Degree Days  
Heating Degree Days 0    
Month to date heating degree days 0  
Since 1 July heating degree days 0  
Cooling Degree Days 17    
Month to date cooling degree days 173  
Year to date cooling degree days 2209  
Growing Degree Days 32 (Base 50)    
Moisture  
Dew Point 67 °F    
Average Humidity 64    
Maximum Humidity 90    
Minimum Humidity 38    
Precipitation  
Precipitation 0.00 in 0.16 in 2.74 in (1964)
Month to date precipitation 1.65 1.75  
Year to date precipitation 54.94 45.66  
Sea Level Pressure  
Sea Level Pressure 30.10 in    
Wind  
Wind Speed 7 mph (ENE)    
Max Wind Speed 17 mph    
Max Gust Speed 21 mph    
Visibility 10 miles    
Events      
T = Trace of Precipitation, MM = Missing Value Source: NWS Daily Summary

Daily Weather History Graph

Daily Weather History Graph

Search for Another Location

Airport or City:

Trip Planner

Search our weather history database for the weather conditions in past years. The results will help you decide how hot, cold, wet, or windy it might be!

Date:

Astronomy

Sep. 10, 2013 Rise Set
Actual Time 7:19 AM EDT 7:48 PM EDT
Civil Twilight 6:55 AM EDT 8:12 PM EDT
Nautical Twilight 6:26 AM EDT 8:41 PM EDT
Astronomical Twilight 5:57 AM EDT 9:09 PM EDT
Moon 12:19 PM EDT (9/10) 11:16 PM EDT (9/10)
Length of Visible Light 13h 17m
Length of Day
12h 29m
Waxing Crescent, 28% of the Moon is Illuminated
Sep 10
Waxing Crescent
Sep 12
First Quarter
Sep 19
Full
Sep 26
Last Quarter
Oct 4
New

Hourly Weather History & Observations

Time (EDT) Temp. Heat Index Dew Point Humidity Pressure Visibility Wind Dir Wind Speed Gust Speed Precip Events Conditions
12:53 AM 79.0 °F - 69.1 °F 72% 30.07 in 10.0 mi ESE 6.9 mph - N/A   Mostly Cloudy
1:53 AM 77.0 °F - 69.1 °F 76% 30.07 in 10.0 mi East 5.8 mph - N/A   Clear
2:53 AM 75.9 °F - 68.0 °F 76% 30.07 in 10.0 mi ESE 3.5 mph - N/A   Clear
3:53 AM 75.0 °F - 68.0 °F 79% 30.07 in 10.0 mi ENE 3.5 mph - N/A   Clear
4:53 AM 72.0 °F - 66.9 °F 84% 30.07 in 10.0 mi Calm Calm - N/A   Clear
5:53 AM 72.0 °F - 66.9 °F 84% 30.08 in 10.0 mi Calm Calm - N/A   Clear
6:53 AM 72.0 °F - 66.9 °F 84% 30.09 in 10.0 mi Calm Calm - N/A   Clear
7:53 AM 72.0 °F - 68.0 °F 87% 30.11 in 10.0 mi Calm Calm - N/A   Clear
8:53 AM 78.1 °F - 69.1 °F 74% 30.12 in 10.0 mi East 4.6 mph - N/A   Clear
9:53 AM 82.0 °F 84.9 °F 68.0 °F 62% 30.14 in 10.0 mi East 11.5 mph - N/A   Clear
10:53 AM 84.9 °F 88.2 °F 68.0 °F 57% 30.16 in 10.0 mi East 12.7 mph 20.7 mph N/A   Partly Cloudy
11:53 AM 86.0 °F 90.1 °F 69.1 °F 57% 30.15 in 10.0 mi East 11.5 mph - N/A   Scattered Clouds
12:53 PM 88.0 °F 91.4 °F 68.0 °F 51% 30.14 in 10.0 mi ENE 11.5 mph - N/A   Partly Cloudy
1:53 PM 91.0 °F 93.0 °F 64.9 °F 42% 30.13 in 10.0 mi East 15.0 mph 19.6 mph N/A   Partly Cloudy
2:53 PM 91.0 °F 93.0 °F 64.9 °F 42% 30.11 in 10.0 mi East 11.5 mph - N/A   Scattered Clouds
3:53 PM 91.9 °F 92.9 °F 63.0 °F 38% 30.09 in 10.0 mi ENE 8.1 mph - N/A   Scattered Clouds
4:53 PM 91.9 °F 92.9 °F 63.0 °F 38% 30.07 in 10.0 mi ENE 11.5 mph - N/A   Partly Cloudy
5:53 PM 91.0 °F 92.6 °F 64.0 °F 41% 30.06 in 10.0 mi NE 5.8 mph - N/A   Clear
6:53 PM 89.1 °F 91.3 °F 66.0 °F 46% 30.07 in 10.0 mi ENE 6.9 mph - N/A   Mostly Cloudy
7:53 PM 86.0 °F 88.8 °F 66.9 °F 53% 30.08 in 10.0 mi ENE 3.5 mph - N/A   Partly Cloudy
8:53 PM 82.9 °F 86.5 °F 69.1 °F 63% 30.10 in 10.0 mi Calm Calm - N/A   Partly Cloudy
9:53 PM 82.0 °F 84.9 °F 68.0 °F 62% 30.12 in 10.0 mi East 4.6 mph - N/A   Partly Cloudy
10:53 PM 82.0 °F 84.5 °F 66.9 °F 60% 30.13 in 10.0 mi East 11.5 mph - N/A   Partly Cloudy
11:53 PM 80.1 °F 82.3 °F 66.9 °F 64% 30.14 in 10.0 mi East 6.9 mph - N/A   Clear